Ypsilanti, MI

1:56 PM EST on February 27, 2017 (GMT -0500)
Willow Run

Weather History for KYIP - October, 2013

Change the Weather History Date:

Wednesday, October 9, 2013

  Actual Average Record
Temperature  
Mean Temperature 56 °F -  
Max Temperature 72 °F 63 °F 86 °F (1949)
Min Temperature 42 °F 45 °F 31 °F (1989)
Degree Days  
Heating Degree Days 8    
Growing Degree Days 6 (Base 50)    
Moisture  
Dew Point 44 °F    
Average Humidity 68    
Maximum Humidity 89    
Minimum Humidity 38    
Precipitation  
Precipitation 0.01 in - - ()
Sea Level Pressure  
Sea Level Pressure 30.27 in    
Wind  
Wind Speed 2 mph (ESE)    
Max Wind Speed 12 mph    
Max Gust Speed 17 mph    
Visibility 10 miles    
Events      
Averages and records for this station are not official NWS values.
T = Trace of Precipitation, MM = Missing Value Source: NWS Daily Summary

Daily Weather History Graph

Daily Weather History Graph

Search for Another Location

Airport or City:

Trip Planner

Search our weather history database for the weather conditions in past years. The results will help you decide how hot, cold, wet, or windy it might be!

Date:

Astronomy

Oct. 09, 2013 Rise Set
Actual Time 7:40 AM EDT 7:01 PM EDT
Civil Twilight 7:12 AM EDT 7:29 PM EDT
Nautical Twilight 6:39 AM EDT 8:02 PM EDT
Astronomical Twilight 6:07 AM EDT 8:34 PM EDT
Moon 12:39 PM EDT (10/9) 10:30 PM EDT (10/9)
Length of Visible Light 12h 17m
Length of Day
11h 21m
Waxing Crescent, 25% of the Moon is Illuminated
Oct 9
Waxing Crescent
Oct 11
First Quarter
Oct 18
Full
Oct 26
Last Quarter
Nov 3
New

Hourly Weather History & Observations

Time (EDT) Temp. Dew Point Humidity Pressure Visibility Wind Dir Wind Speed Gust Speed Precip Events Conditions
12:53 AM 46.0 °F 42.1 °F 86% 30.27 in 10.0 mi Calm Calm - N/A   Clear
1:53 AM 45.0 °F 41.0 °F 86% 30.27 in 10.0 mi Calm Calm - N/A   Clear
2:53 AM 46.0 °F 41.0 °F 83% 30.27 in 10.0 mi Calm Calm - 0.01 in   Clear
3:53 AM 42.1 °F 39.0 °F 89% 30.27 in 10.0 mi Calm Calm - N/A   Clear
4:53 AM 44.1 °F 39.0 °F 82% 30.28 in 10.0 mi Calm Calm - N/A   Clear
5:53 AM 44.1 °F 39.9 °F 85% 30.29 in 10.0 mi Calm Calm - N/A   Clear
6:53 AM 43.0 °F 39.0 °F 86% 30.30 in 10.0 mi Calm Calm - N/A   Clear
7:53 AM 43.0 °F 39.0 °F 86% 30.31 in 10.0 mi Calm Calm - N/A   Clear
8:53 AM 50.0 °F 45.0 °F 83% 30.32 in 10.0 mi Calm Calm - N/A   Clear
9:53 AM 57.9 °F 51.1 °F 78% 30.32 in 10.0 mi Calm Calm - N/A   Clear
10:53 AM 66.0 °F 53.1 °F 63% 30.32 in 10.0 mi ESE 5.8 mph - N/A   Clear
11:53 AM 69.1 °F 51.1 °F 53% 30.32 in 10.0 mi SE 6.9 mph - N/A   Clear
12:53 PM 71.1 °F 46.0 °F 41% 30.30 in 10.0 mi East 8.1 mph - N/A   Clear
1:53 PM 71.1 °F 46.0 °F 41% 30.29 in 10.0 mi SE 11.5 mph - N/A   Clear
2:53 PM 71.1 °F 44.1 °F 38% 30.27 in 10.0 mi ESE 9.2 mph 17.3 mph N/A   Clear
3:53 PM 71.1 °F 44.1 °F 38% 30.26 in 10.0 mi ESE 8.1 mph - N/A   Clear
4:53 PM 71.1 °F 44.1 °F 38% 30.24 in 10.0 mi ESE 5.8 mph - N/A   Clear
5:53 PM 69.1 °F 45.0 °F 42% 30.24 in 10.0 mi SE 6.9 mph - N/A   Clear
6:53 PM 62.1 °F 46.0 °F 56% 30.24 in 10.0 mi SSE 6.9 mph - N/A   Clear
7:53 PM 57.0 °F 46.0 °F 67% 30.25 in 10.0 mi East 4.6 mph - N/A   Clear
8:53 PM 55.0 °F 44.1 °F 67% 30.24 in 10.0 mi Calm Calm - N/A   Clear
9:53 PM 52.0 °F 45.0 °F 77% 30.24 in 10.0 mi Calm Calm - N/A   Clear
10:53 PM 48.0 °F 43.0 °F 83% 30.24 in 10.0 mi NE 3.5 mph - N/A   Clear
11:53 PM 48.0 °F 43.0 °F 83% 30.23 in 10.0 mi North 3.5 mph - N/A   Clear